| time (UTC) | temp C | wind direction | speed KPH | gust KPH | rain 1hr cm | rain 24hr cm | rain mn cm | humidity % | barometer mb |
| 20260507085531 | 12 | 329 | 0.0 | 1.6 | 0.00 | 0.71 | 0.03 | 86 | 1009.1 |
| 20260507085031 | 12 | 331 | 0.0 | 1.6 | 0.00 | 0.71 | 0.03 | 86 | 1009.2 |
| 20260507084556 | 12 | 329 | 0.0 | 0.0 | 0.00 | 0.71 | 0.03 | 87 | 1009.1 |
| 20260507084547 | 12 | 331 | 0.0 | 1.6 | 0.00 | 0.71 | 0.03 | 87 | 1009.2 |
| 20260507083533 | 12 | 329 | 0.0 | 4.8 | 0.00 | 0.71 | 0.03 | 87 | 1009.0 |
| 20260507083311 | 12 | 329 | 0.0 | 4.8 | 0.00 | 0.71 | 0.03 | 87 | 1009.1 |
| 20260507082531 | 12 | 0 | 0.0 | 3.2 | 0.00 | 0.71 | 0.03 | 87 | 1009.4 |
| 20260507082034 | 12 | 0 | 0.0 | 3.2 | 0.00 | 0.71 | 0.03 | 87 | 1009.1 |
| 20260507081531 | 12 | 4 | 0.0 | 1.6 | 0.00 | 0.71 | 0.03 | 87 | 1009.0 |
| 20260507081031 | 12 | 0 | 0.0 | 1.6 | 0.00 | 0.71 | 0.03 | 87 | 1009.0 |
| 20260507080532 | 12 | 6 | 0.0 | 1.6 | 0.00 | 0.71 | 0.03 | 87 | 1008.7 |
| 20260507080033 | 12 | 6 | 0.0 | 1.6 | 0.00 | 0.71 | 0.03 | 87 | 1008.6 |
| 20260507075812 | 12 | 6 | 0.0 | 1.6 | 0.00 | 0.71 | 0.03 | 87 | 1008.5 |
| 20260507075033 | 12 | 21 | 0.0 | 3.2 | 0.00 | 0.71 | 0.03 | 87 | 1008.4 |
| 20260507074532 | 12 | 107 | 0.0 | 3.2 | 0.00 | 0.71 | 0.03 | 87 | 1008.6 |
| 20260507074033 | 12 | 255 | 0.0 | 3.2 | 0.00 | 0.71 | 0.03 | 87 | 1008.6 |
| 20260507073533 | 12 | 255 | 0.0 | 4.8 | 0.00 | 0.71 | 0.03 | 87 | 1008.7 |
| 20260507073309 | 12 | 252 | 0.0 | 4.8 | 0.00 | 0.71 | 0.03 | 87 | 1008.4 |
| 20260507072531 | 12 | 320 | 1.6 | 4.8 | 0.00 | 0.71 | 0.03 | 88 | 1008.4 |
| 20260507072031 | 12 | 323 | 0.0 | 4.8 | 0.00 | 0.71 | 0.03 | 87 | 1008.3 |
| 20260507071532 | 12 | 257 | 0.0 | 4.8 | 0.00 | 0.71 | 0.03 | 88 | 1008.4 |
| 20260507071032 | 12 | 257 | 0.0 | 4.8 | 0.00 | 0.71 | 0.03 | 88 | 1008.5 |
| 20260507070810 | 12 | 261 | 0.0 | 3.2 | 0.00 | 0.71 | 0.03 | 88 | 1008.3 |
| 20260507070311 | 12 | 268 | 0.0 | 6.4 | 0.00 | 0.71 | 0.03 | 89 | 1008.4 |
| 20260507065811 | 12 | 274 | 0.0 | 6.4 | 0.00 | 0.71 | 0.03 | 89 | 1008.5 |
| 20260507065031 | 12 | 345 | 0.0 | 6.4 | 0.00 | 0.71 | 0.03 | 90 | 1008.4 |
| 20260507064530 | 13 | 230 | 1.6 | 6.4 | 0.00 | 0.71 | 0.03 | 90 | 1008.5 |
| 20260507064311 | 13 | 319 | 0.0 | 1.6 | 0.03 | 0.71 | 0.03 | 91 | 1008.5 |
| 20260507063532 | 13 | 319 | 0.0 | 1.6 | 0.03 | 0.71 | 0.03 | 91 | 1008.5 |
| 20260507063312 | 13 | 319 | 0.0 | 3.2 | 0.03 | 0.71 | 0.03 | 91 | 1008.5 |
| 20260507062532 | 13 | 314 | 0.0 | 3.2 | 0.03 | 0.71 | 0.03 | 91 | 1008.6 |
| 20260507062031 | 13 | 330 | 0.0 | 3.2 | 0.03 | 0.71 | 0.03 | 91 | 1008.7 |
| 20260507061531 | 13 | 351 | 0.0 | 4.8 | 0.03 | 0.71 | 0.03 | 91 | 1008.6 |
| 20260507061032 | 13 | 18 | 0.0 | 4.8 | 0.03 | 0.71 | 0.03 | 91 | 1008.3 |
| 20260507060810 | 13 | 259 | 0.0 | 3.2 | 0.03 | 0.71 | 0.03 | 91 | 1008.3 |
| 20260507060059 | 13 | 264 | 1.6 | 4.8 | 0.03 | 0.69 | 0.03 | 90 | 1008.4 |
| 20260507060052 | 13 | 30 | 0.0 | 4.8 | 0.03 | 0.69 | 0.03 | 91 | 1008.4 |
| 20260507055030 | 13 | 288 | 0.0 | 3.2 | 0.03 | 0.69 | 0.03 | 90 | 1008.6 |
| 20260507054531 | 13 | 285 | 1.6 | 4.8 | 0.03 | 0.69 | 0.03 | 90 | 1008.7 |
| 20260507054032 | 13 | 186 | 1.6 | 4.8 | 0.00 | 0.69 | 0.00 | 90 | 1008.5 |
| 20260507053532 | 13 | 317 | 1.6 | 4.8 | 0.00 | 0.69 | 0.00 | 89 | 1008.6 |
| 20260507053032 | 13 | 54 | 1.6 | 4.8 | 0.00 | 0.69 | 0.00 | 89 | 1008.7 |
| 20260507052530 | 13 | 45 | 1.6 | 4.8 | 0.00 | 0.69 | 0.00 | 89 | 1008.5 |
| 20260507052031 | 13 | 6 | 1.6 | 4.8 | 0.00 | 0.69 | 0.00 | 89 | 1008.7 |
| 20260507051531 | 13 | 295 | 1.6 | 4.8 | 0.00 | 0.69 | 0.00 | 89 | 1008.5 |
| 20260507051312 | 13 | 257 | 1.6 | 6.4 | 0.00 | 0.69 | 0.00 | 89 | 1008.3 |
| 20260507050532 | 13 | 73 | 1.6 | 6.4 | 0.00 | 0.69 | 0.00 | 88 | 1008.2 |
| 20260507050310 | 14 | 66 | 3.2 | 6.4 | 0.00 | 0.69 | 0.00 | 88 | 1008.2 |
| 20260507045533 | 14 | 244 | 1.6 | 4.8 | 0.00 | 0.69 | 0.00 | 88 | 1008.8 |
| 20260507045031 | 14 | 257 | 0.0 | 6.4 | 0.00 | 0.69 | 0.00 | 88 | 1008.8 |
| 20260507044532 | 14 | 61 | 1.6 | 6.4 | 0.00 | 0.69 | 0.00 | 87 | 1008.5 |
| 20260507044032 | 14 | 97 | 1.6 | 4.8 | 0.00 | 0.69 | 0.00 | 87 | 1008.6 |
| 20260507043531 | 15 | 245 | 0.0 | 3.2 | 0.00 | 0.69 | 0.00 | 86 | 1008.8 |
| 20260507043031 | 15 | 245 | 1.6 | 6.4 | 0.00 | 0.69 | 0.00 | 85 | 1008.7 |
| 20260507042531 | 15 | 237 | 1.6 | 6.4 | 0.00 | 0.69 | 0.00 | 85 | 1008.6 |
| 20260507042032 | 15 | 16 | 1.6 | 8.0 | 0.00 | 0.69 | 0.00 | 84 | 1008.9 |
| 20260507041531 | 15 | 200 | 0.0 | 8.0 | 0.00 | 0.69 | 0.00 | 84 | 1008.8 |
| 20260507041032 | 15 | 261 | 1.6 | 8.0 | 0.00 | 0.69 | 0.00 | 84 | 1008.6 |
| 20260507040531 | 15 | 350 | 0.0 | 1.6 | 0.00 | 0.69 | 0.00 | 84 | 1008.6 |
| 20260507040032 | 15 | 17 | 0.0 | 3.2 | 0.00 | 0.69 | 0.00 | 84 | 1008.4 |
| 20260507035811 | 15 | 18 | 1.6 | 3.2 | 0.00 | 0.69 | 0.69 | 84 | 1008.2 |
| 20260507035032 | 15 | 16 | 0.0 | 3.2 | 0.00 | 0.69 | 0.69 | 84 | 1008.1 |
| 20260507034531 | 15 | 13 | 0.0 | 4.8 | 0.00 | 0.69 | 0.69 | 84 | 1008.1 |
| 20260507034309 | 16 | 17 | 0.0 | 6.4 | 0.00 | 0.69 | 0.69 | 82 | 1008.0 |
| 20260507033525 | 16 | 262 | 1.6 | 9.7 | 0.00 | 0.69 | 0.69 | 81 | 1008.2 |
| 20260507033026 | 16 | 285 | 3.2 | 9.7 | 0.00 | 0.69 | 0.69 | 80 | 1008.4 |
| 20260507032525 | 16 | 212 | 1.6 | 9.7 | 0.00 | 0.69 | 0.69 | 79 | 1008.0 |
| 20260507032024 | 16 | 334 | 3.2 | 9.7 | 0.00 | 0.69 | 0.69 | 78 | 1008.4 |
| 20260507031523 | 16 | 306 | 0.0 | 3.2 | 0.00 | 0.69 | 0.69 | 79 | 1008.3 |
| 20260507031023 | 16 | 250 | 0.0 | 6.4 | 0.00 | 0.69 | 0.69 | 79 | 1008.3 |
| 20260507030800 | 16 | 313 | 1.6 | 6.4 | 0.00 | 0.69 | 0.69 | 79 | 1008.2 |
| 20260507030011 | 17 | 69 | 0.0 | 4.8 | 0.00 | 0.69 | 0.69 | 79 | 1007.9 |
| 20260507025750 | 17 | 55 | 0.0 | 6.4 | 0.00 | 0.69 | 0.69 | 79 | 1007.5 |
| 20260507025013 | 17 | 54 | 3.2 | 6.4 | 0.00 | 0.69 | 0.69 | 79 | 1007.3 |
| 20260507024511 | 17 | 109 | 3.2 | 14.5 | 0.00 | 0.69 | 0.69 | 79 | 1007.5 |
| 20260507024010 | 17 | 89 | 4.8 | 14.5 | 0.00 | 0.69 | 0.69 | 80 | 1008.0 |
| 20260507023745 | 17 | 102 | 1.6 | 11.3 | 0.00 | 0.69 | 0.69 | 80 | 1007.9 |
| 20260507023010 | 17 | 1 | 4.8 | 11.3 | 0.00 | 0.69 | 0.69 | 81 | 1007.7 |
| 20260507022510 | 17 | 13 | 4.8 | 9.7 | 0.00 | 0.69 | 0.69 | 83 | 1007.5 |
| 20260507022009 | 17 | 144 | 3.2 | 8.0 | 0.00 | 0.69 | 0.69 | 84 | 1007.5 |
| 20260507021506 | 17 | 37 | 0.0 | 6.4 | 0.00 | 0.69 | 0.69 | 84 | 1007.4 |
| 20260507021005 | 18 | 345 | 1.6 | 6.4 | 0.00 | 0.69 | 0.69 | 85 | 1007.3 |
| 20260507020502 | 18 | 288 | 1.6 | 4.8 | 0.00 | 0.69 | 0.69 | 86 | 1007.3 |
| 20260507020030 | 18 | 237 | 1.6 | 4.8 | 0.00 | 0.69 | 0.69 | 87 | 1007.2 |
| 20260507020022 | 18 | 233 | 1.6 | 4.8 | 0.00 | 0.69 | 0.69 | 86 | 1007.3 |
| 20260507015004 | 18 | 288 | 0.0 | 3.2 | 0.00 | 0.69 | 0.69 | 87 | 1007.2 |
| 20260507014529 | 18 | 68 | 0.0 | 3.2 | 0.00 | 0.69 | 0.69 | 88 | 1007.0 |
| 20260507014519 | 18 | 48 | 0.0 | 3.2 | 0.00 | 0.69 | 0.69 | 88 | 1007.1 |
| 20260507013502 | 18 | 61 | 0.0 | 3.2 | 0.00 | 0.69 | 0.69 | 89 | 1007.0 |
| 20260507013002 | 18 | 66 | 0.0 | 4.8 | 0.00 | 0.69 | 0.69 | 90 | 1007.3 |
| 20260507012502 | 18 | 58 | 0.0 | 4.8 | 0.00 | 0.69 | 0.69 | 90 | 1007.3 |
| 20260507012002 | 18 | 58 | 0.0 | 3.2 | 0.00 | 0.69 | 0.69 | 91 | 1007.3 |
| 20260507011503 | 18 | 261 | 0.0 | 1.6 | 0.00 | 0.69 | 0.69 | 91 | 1007.4 |
| 20260507011004 | 18 | 261 | 0.0 | 1.6 | 0.00 | 0.69 | 0.69 | 91 | 1007.4 |
| 20260507010504 | 18 | 261 | 0.0 | 0.0 | 0.00 | 0.69 | 0.69 | 91 | 1007.2 |
| 20260507010244 | 18 | 261 | 0.0 | 0.0 | 0.00 | 0.69 | 0.69 | 91 | 1007.3 |
| 20260507005503 | 18 | 261 | 0.0 | 3.2 | 0.00 | 0.69 | 0.69 | 91 | 1007.2 |
| 20260507005230 | 18 | 261 | 1.6 | 3.2 | 0.00 | 0.69 | 0.69 | 91 | 1007.0 |
| 20260507004447 | 18 | 261 | 0.0 | 0.0 | 0.00 | 0.69 | 0.69 | 90 | 1007.1 |
| 20260507003945 | 18 | 261 | 0.0 | 0.0 | 0.00 | 0.69 | 0.69 | 90 | 1007.1 |
| 20260507003444 | 18 | 261 | 0.0 | 1.6 | 0.00 | 0.69 | 0.69 | 90 | 1007.0 |
| 20260507002944 | 18 | 261 | 0.0 | 1.6 | 0.00 | 0.69 | 0.69 | 90 | 1007.0 |
| 20260507002443 | 18 | 261 | 0.0 | 0.0 | 0.00 | 0.69 | 0.69 | 89 | 1006.9 |
| 20260507001935 | 18 | 261 | 0.0 | 0.0 | 0.00 | 0.69 | 0.69 | 89 | 1006.8 |
| 20260507001433 | 19 | 261 | 0.0 | 0.0 | 0.00 | 0.69 | 0.69 | 88 | 1006.8 |
| 20260507000934 | 19 | 261 | 0.0 | 0.0 | 0.00 | 0.69 | 0.69 | 87 | 1006.7 |
| 20260507000435 | 19 | 261 | 0.0 | 0.0 | 0.00 | 0.69 | 0.69 | 86 | 1006.6 |
| 20260506235932 | 20 | 261 | 0.0 | 0.0 | 0.00 | 0.69 | 0.69 | 85 | 1006.6 |
| 20260506235432 | 20 | 261 | 0.0 | 0.0 | 0.00 | 0.69 | 0.69 | 84 | 1006.7 |
| 20260506235212 | 20 | 261 | 0.0 | 0.0 | 0.00 | 0.69 | 0.69 | 84 | 1006.6 |
| 20260506234432 | 20 | 261 | 0.0 | 0.0 | 0.00 | 0.69 | 0.69 | 83 | 1006.6 |
| 20260506234211 | 20 | 261 | 0.0 | 0.0 | 0.00 | 0.69 | 0.69 | 83 | 1006.6 |
| 20260506233433 | 20 | 261 | 0.0 | 0.0 | 0.00 | 0.69 | 0.69 | 83 | 1006.4 |
| 20260506232932 | 20 | 261 | 0.0 | 0.0 | 0.00 | 0.69 | 0.69 | 82 | 1006.4 |
| 20260506232433 | 20 | 261 | 0.0 | 1.6 | 0.00 | 0.69 | 0.69 | 82 | 1006.2 |
| 20260506232211 | 20 | 261 | 0.0 | 1.6 | 0.00 | 0.69 | 0.69 | 82 | 1006.2 |
| 20260506231433 | 20 | 261 | 0.0 | 1.6 | 0.00 | 0.69 | 0.69 | 82 | 1006.2 |
| 20260506231212 | 20 | 261 | 0.0 | 1.6 | 0.00 | 0.69 | 0.69 | 82 | 1006.1 |
| 20260506230426 | 20 | 261 | 0.0 | 3.2 | 0.00 | 0.69 | 0.69 | 82 | 1006.1 |
| 20260506225926 | 20 | 261 | 0.0 | 4.8 | 0.00 | 0.69 | 0.69 | 81 | 1006.1 |
| 20260506225426 | 20 | 261 | 0.0 | 4.8 | 0.00 | 0.69 | 0.69 | 80 | 1006.1 |
| 20260506224925 | 20 | 254 | 0.0 | 4.8 | 0.00 | 0.69 | 0.69 | 81 | 1006.0 |
| 20260506224425 | 20 | 257 | 0.0 | 4.8 | 0.00 | 0.69 | 0.69 | 82 | 1006.0 |
| 20260506223925 | 20 | 292 | 0.0 | 3.2 | 0.00 | 0.69 | 0.69 | 81 | 1005.9 |
| 20260506223425 | 20 | 292 | 0.0 | 3.2 | 0.00 | 0.69 | 0.69 | 82 | 1005.8 |
| 20260506222923 | 20 | 292 | 0.0 | 4.8 | 0.00 | 0.69 | 0.69 | 81 | 1005.8 |
| 20260506222422 | 20 | 344 | 3.2 | 6.4 | 0.00 | 0.69 | 0.69 | 80 | 1006.0 |
| 20260506221920 | 21 | 275 | 3.2 | 8.0 | 0.00 | 0.69 | 0.69 | 80 | 1005.9 |
| 20260506221419 | 21 | 230 | 3.2 | 8.0 | 0.00 | 0.69 | 0.69 | 79 | 1005.8 |
| 20260506221201 | 21 | 214 | 1.6 | 8.0 | 0.00 | 0.69 | 0.69 | 80 | 1005.8 |
| 20260506220658 | 21 | 252 | 3.2 | 8.0 | 0.00 | 0.69 | 0.69 | 79 | 1005.8 |
| 20260506215919 | 21 | 8 | 1.6 | 8.0 | 0.00 | 0.69 | 0.69 | 79 | 1005.8 |
| 20260506215416 | 21 | 168 | 1.6 | 8.0 | 0.00 | 0.69 | 0.69 | 80 | 1005.8 |
| 20260506214916 | 21 | 94 | 3.2 | 8.0 | 0.00 | 0.69 | 0.69 | 79 | 1005.8 |
| 20260506214416 | 21 | 248 | 3.2 | 8.0 | 0.00 | 0.69 | 0.69 | 79 | 1005.8 |
| 20260506213917 | 21 | 262 | 1.6 | 4.8 | 0.00 | 0.69 | 0.69 | 80 | 1005.8 |
| 20260506213655 | 21 | 226 | 1.6 | 9.7 | 0.00 | 0.69 | 0.69 | 78 | 1005.8 |
| 20260506212915 | 21 | 257 | 1.6 | 9.7 | 0.00 | 0.69 | 0.69 | 79 | 1005.8 |
| 20260506212416 | 21 | 183 | 1.6 | 8.0 | 0.00 | 0.69 | 0.69 | 80 | 1005.8 |
| 20260506212155 | 21 | 235 | 1.6 | 11.3 | 0.00 | 0.69 | 0.69 | 78 | 1005.7 |
| 20260506211416 | 21 | 233 | 3.2 | 11.3 | 0.00 | 0.69 | 0.69 | 77 | 1005.7 |
| 20260506210916 | 21 | 212 | 3.2 | 8.0 | 0.00 | 0.69 | 0.69 | 77 | 1005.8 |
| 20260506210416 | 21 | 288 | 3.2 | 8.0 | 0.00 | 0.69 | 0.69 | 78 | 1005.7 |
| 20260506205937 | 21 | 223 | 4.8 | 9.7 | 0.00 | 0.69 | 0.69 | 79 | 1005.5 |
| 20260506205929 | 21 | 245 | 1.6 | 8.0 | 0.00 | 0.69 | 0.69 | 78 | 1005.5 |
| 20260506204915 | 21 | 220 | 3.2 | 9.7 | 0.00 | 0.69 | 0.69 | 78 | 1005.4 |
| 20260506204415 | 21 | 161 | 3.2 | 8.0 | 0.00 | 0.69 | 0.69 | 79 | 1005.2 |
| 20260506203912 | 21 | 69 | 3.2 | 11.3 | 0.00 | 0.69 | 0.69 | 79 | 1005.4 |
| 20260506203410 | 21 | 224 | 0.0 | 11.3 | 0.00 | 0.69 | 0.69 | 80 | 1005.5 |
| 20260506202910 | 21 | 213 | 3.2 | 6.4 | 0.00 | 0.69 | 0.69 | 78 | 1005.4 |
| 20260506202409 | 21 | 223 | 3.2 | 8.0 | 0.00 | 0.69 | 0.69 | 78 | 1005.3 |
| 20260506201909 | 21 | 265 | 1.6 | 8.0 | 0.00 | 0.69 | 0.69 | 78 | 1005.5 |
| 20260506201435 | 21 | 237 | 4.8 | 8.0 | 0.00 | 0.69 | 0.69 | 79 | 1005.5 |
| 20260506201425 | 21 | 241 | 4.8 | 8.0 | 0.00 | 0.69 | 0.69 | 79 | 1005.4 |
| 20260506200650 | 20 | 235 | 4.8 | 9.7 | 0.00 | 0.69 | 0.69 | 79 | 1005.5 |
| 20260506195907 | 20 | 165 | 3.2 | 14.5 | 0.00 | 0.69 | 0.69 | 80 | 1005.6 |
| 20260506195407 | 20 | 237 | 6.4 | 14.5 | 0.00 | 0.69 | 0.69 | 79 | 1005.5 |
| 20260506194907 | 20 | 217 | 3.2 | 9.7 | 0.00 | 0.69 | 0.69 | 79 | 1005.5 |
| 20260506194407 | 20 | 241 | 4.8 | 9.7 | 0.00 | 0.69 | 0.69 | 79 | 1005.5 |
| 20260506194144 | 20 | 221 | 1.6 | 8.0 | 0.00 | 0.69 | 0.69 | 81 | 1005.6 |
| 20260506193403 | 21 | 262 | 1.6 | 11.3 | 0.00 | 0.69 | 0.69 | 81 | 1005.6 |
| 20260506193142 | 20 | 250 | 3.2 | 11.3 | 0.00 | 0.69 | 0.69 | 78 | 1005.6 |
| 20260506192401 | 21 | 189 | 3.2 | 16.1 | 0.00 | 0.69 | 0.69 | 78 | 1005.6 |
| 20260506191902 | 20 | 192 | 4.8 | 17.7 | 0.00 | 0.69 | 0.69 | 80 | 1005.7 |
| 20260506191357 | 20 | 230 | 6.4 | 17.7 | 0.00 | 0.69 | 0.69 | 80 | 1005.8 |
| 20260506190853 | 20 | 195 | 4.8 | 9.7 | 0.00 | 0.69 | 0.69 | 80 | 1005.6 |
| 20260506190354 | 20 | 214 | 4.8 | 9.7 | 0.00 | 0.69 | 0.69 | 79 | 1005.9 |
| 20260506190137 | 20 | 195 | 3.2 | 9.7 | 0.00 | 0.69 | 0.69 | 82 | 1005.9 |
| 20260506185355 | 20 | 189 | 4.8 | 9.7 | 0.00 | 0.69 | 0.69 | 82 | 1005.7 |
| 20260506185139 | 20 | 293 | 4.8 | 8.0 | 0.00 | 0.69 | 0.69 | 82 | 1005.9 |
| 20260506184633 | 19 | 309 | 3.2 | 14.5 | 0.00 | 0.69 | 0.69 | 82 | 1006.2 |
| 20260506184148 | 19 | 310 | 3.2 | 9.7 | 0.00 | 0.69 | 0.69 | 82 | 1006.2 |
| 20260506183903 | 19 | 227 | 1.6 | 14.5 | 0.00 | 0.69 | 0.69 | 81 | 1006.1 |
| 20260506182842 | 19 | 230 | 3.2 | 9.7 | 0.00 | 0.69 | 0.69 | 82 | 1006.1 |
| 20260506182340 | 19 | 117 | 3.2 | 8.0 | 0.00 | 0.69 | 0.69 | 81 | 1006.2 |
| 20260506181841 | 19 | 203 | 4.8 | 9.7 | 0.00 | 0.69 | 0.69 | 82 | 1006.3 |
| 20260506181341 | 19 | 202 | 4.8 | 16.1 | 0.00 | 0.69 | 0.69 | 81 | 1006.4 |
| 20260506180842 | 19 | 250 | 6.4 | 16.1 | 0.00 | 0.69 | 0.69 | 82 | 1006.4 |
| 20260506180340 | 19 | 296 | 1.6 | 14.5 | 0.00 | 0.69 | 0.69 | 81 | 1006.4 |
| 20260506175832 | 19 | 206 | 4.8 | 11.3 | 0.00 | 0.69 | 0.69 | 80 | 1006.5 |
| 20260506175333 | 19 | 0 | 3.2 | 6.4 | 0.00 | 0.69 | 0.69 | 82 | 1006.3 |
| 20260506175115 | 19 | 159 | 3.2 | 11.3 | 0.00 | 0.69 | 0.69 | 82 | 1006.4 |
| 20260506174332 | 19 | 247 | 4.8 | 11.3 | 0.00 | 0.69 | 0.69 | 83 | 1006.5 |
| 20260506173834 | 18 | 226 | 3.2 | 8.0 | 0.00 | 0.69 | 0.69 | 83 | 1006.5 |
| 20260506173333 | 18 | 323 | 3.2 | 8.0 | 0.00 | 0.69 | 0.69 | 85 | 1006.5 |
| 20260506172832 | 18 | 59 | 3.2 | 16.1 | 0.00 | 0.69 | 0.69 | 84 | 1006.6 |
| 20260506172331 | 18 | 227 | 3.2 | 16.1 | 0.00 | 0.69 | 0.69 | 85 | 1006.7 |
| 20260506172111 | 18 | 244 | 4.8 | 11.3 | 0.00 | 0.69 | 0.69 | 84 | 1006.7 |
| 20260506171331 | 18 | 213 | 4.8 | 11.3 | 0.00 | 0.69 | 0.69 | 85 | 1006.7 |
| 20260506170833 | 18 | 219 | 1.6 | 9.7 | 0.00 | 0.69 | 0.69 | 86 | 1006.7 |
| 20260506170609 | 18 | 224 | 4.8 | 11.3 | 0.00 | 0.69 | 0.69 | 86 | 1006.6 |
| 20260506170112 | 18 | 274 | 3.2 | 16.1 | 0.00 | 0.69 | 0.69 | 86 | 1006.8 |
| 20260506165333 | 18 | 196 | 4.8 | 16.1 | 0.00 | 0.69 | 0.69 | 86 | 1006.8 |
| 20260506164834 | 18 | 248 | 4.8 | 14.5 | 0.00 | 0.69 | 0.69 | 87 | 1006.8 |
| 20260506164330 | 18 | 326 | 4.8 | 14.5 | 0.00 | 0.69 | 0.69 | 86 | 1006.6 |
| 20260506163831 | 18 | 252 | 4.8 | 11.3 | 0.00 | 0.69 | 0.69 | 87 | 1006.6 |
| 20260506163331 | 18 | 220 | 4.8 | 16.1 | 0.00 | 0.69 | 0.69 | 88 | 1006.8 |
| 20260506162831 | 18 | 241 | 6.4 | 16.1 | 0.03 | 0.69 | 0.69 | 89 | 1006.7 |
| 20260506162331 | 18 | 240 | 3.2 | 11.3 | 0.03 | 0.69 | 0.69 | 90 | 1006.8 |
| 20260506161827 | 17 | 300 | 6.4 | 11.3 | 0.03 | 0.69 | 0.69 | 91 | 1006.8 |
| 20260506161327 | 17 | 245 | 3.2 | 9.7 | 0.03 | 0.69 | 0.69 | 92 | 1006.8 |
| 20260506160828 | 17 | 209 | 4.8 | 20.9 | 0.03 | 0.69 | 0.69 | 92 | 1006.7 |
| 20260506160324 | 17 | 158 | 6.4 | 20.9 | 0.05 | 0.69 | 0.69 | 92 | 1006.8 |
| 20260506155825 | 17 | 265 | 4.8 | 8.0 | 0.05 | 0.64 | 0.69 | 93 | 1007.0 |
| 20260506155325 | 17 | 228 | 3.2 | 9.7 | 0.08 | 0.64 | 0.69 | 93 | 1006.8 |
| 20260506155111 | 16 | 331 | 4.8 | 16.1 | 0.08 | 0.64 | 0.69 | 93 | 1006.9 |
| 20260506154603 | 17 | 193 | 6.4 | 17.7 | 0.10 | 0.64 | 0.69 | 94 | 1006.9 |
| 20260506153820 | 16 | 196 | 3.2 | 17.7 | 0.10 | 0.64 | 0.69 | 94 | 1007.0 |
| 20260506153554 | 16 | 233 | 1.6 | 9.7 | 0.13 | 0.64 | 0.69 | 94 | 1006.9 |
| 20260506152815 | 16 | 254 | 3.2 | 14.5 | 0.10 | 0.64 | 0.66 | 94 | 1007.2 |
| 20260506152311 | 16 | 238 | 3.2 | 14.5 | 0.10 | 0.64 | 0.66 | 95 | 1007.3 |
| 20260506151808 | 16 | 259 | 4.8 | 14.5 | 0.10 | 0.64 | 0.66 | 94 | 1007.2 |
| 20260506151308 | 15 | 197 | 3.2 | 9.7 | 0.10 | 0.64 | 0.66 | 94 | 1007.0 |
| 20260506150807 | 15 | 51 | 3.2 | 9.7 | 0.13 | 0.64 | 0.66 | 94 | 1007.2 |
| 20260506150309 | 15 | 240 | 3.2 | 9.7 | 0.10 | 0.64 | 0.64 | 94 | 1007.4 |
| 20260506145807 | 15 | 226 | 3.2 | 9.7 | 0.13 | 0.53 | 0.61 | 94 | 1007.5 |
| 20260506145307 | 15 | 224 | 3.2 | 9.7 | 0.10 | 0.53 | 0.61 | 94 | 1007.5 |
| 20260506144810 | 15 | 274 | 3.2 | 8.0 | 0.13 | 0.53 | 0.61 | 94 | 1007.4 |
| 20260506144549 | 16 | 206 | 1.6 | 8.0 | 0.13 | 0.53 | 0.58 | 94 | 1007.7 |
| 20260506143809 | 15 | 183 | 1.6 | 8.0 | 0.18 | 0.53 | 0.58 | 94 | 1007.7 |
| 20260506143307 | 15 | 244 | 1.6 | 6.4 | 0.20 | 0.53 | 0.56 | 94 | 1007.8 |
| 20260506142807 | 15 | 47 | 0.0 | 8.0 | 0.23 | 0.53 | 0.56 | 94 | 1007.8 |
| 20260506142308 | 15 | 243 | 3.2 | 11.3 | 0.28 | 0.53 | 0.56 | 94 | 1007.9 |
| 20260506141807 | 15 | 230 | 4.8 | 11.3 | 0.33 | 0.53 | 0.56 | 94 | 1007.8 |
| 20260506141306 | 15 | 142 | 3.2 | 8.0 | 0.38 | 0.53 | 0.56 | 94 | 1007.7 |
| 20260506140806 | 15 | 90 | 3.2 | 8.0 | 0.43 | 0.53 | 0.53 | 94 | 1007.7 |
| 20260506140306 | 15 | 134 | 1.6 | 4.8 | 0.46 | 0.53 | 0.53 | 94 | 1007.8 |
| 20260506140047 | 15 | 233 | 1.6 | 8.0 | 0.43 | 0.08 | 0.51 | 94 | 1007.7 |
| 20260506135547 | 15 | 250 | 3.2 | 8.0 | 0.43 | 0.08 | 0.51 | 93 | 1007.6 |
| 20260506135047 | 15 | 55 | 1.6 | 6.4 | 0.41 | 0.08 | 0.48 | 93 | 1007.6 |
| 20260506134306 | 15 | 73 | 3.2 | 6.4 | 0.38 | 0.08 | 0.46 | 93 | 1007.7 |
| 20260506133805 | 15 | 309 | 1.6 | 4.8 | 0.36 | 0.08 | 0.38 | 93 | 1007.7 |
| 20260506133305 | 15 | 220 | 1.6 | 4.8 | 0.30 | 0.08 | 0.36 | 93 | 1008.0 |
| 20260506132806 | 15 | 220 | 1.6 | 4.8 | 0.28 | 0.08 | 0.33 | 93 | 1008.0 |
| 20260506132549 | 15 | 220 | 1.6 | 4.8 | 0.23 | 0.08 | 0.25 | 92 | 1008.1 |
| 20260506132047 | 16 | 188 | 1.6 | 4.8 | 0.18 | 0.08 | 0.20 | 92 | 1008.2 |
| 20260506131304 | 16 | 0 | 1.6 | 4.8 | 0.13 | 0.08 | 0.15 | 92 | 1008.2 |
| 20260506130806 | 16 | 1 | 0.0 | 6.4 | 0.08 | 0.08 | 0.10 | 92 | 1008.4 |
| 20260506130304 | 16 | 329 | 1.6 | 6.4 | 0.08 | 0.08 | 0.08 | 92 | 1008.4 |
| 20260506125805 | 16 | 179 | 0.0 | 3.2 | 0.08 | 0.00 | 0.08 | 92 | 1008.3 |
| 20260506125306 | 16 | 179 | 1.6 | 3.2 | 0.08 | 0.00 | 0.08 | 92 | 1008.1 |
| 20260506124805 | 16 | 178 | 0.0 | 3.2 | 0.08 | 0.00 | 0.08 | 92 | 1007.8 |
| 20260506124305 | 16 | 145 | 1.6 | 3.2 | 0.08 | 0.00 | 0.08 | 91 | 1007.7 |
| 20260506123804 | 16 | 202 | 0.0 | 4.8 | 0.05 | 0.00 | 0.05 | 91 | 1007.6 |
| 20260506123304 | 16 | 202 | 1.6 | 4.8 | 0.05 | 0.00 | 0.05 | 91 | 1007.5 |
| 20260506122805 | 16 | 104 | 0.0 | 4.8 | 0.05 | 0.00 | 0.05 | 90 | 1007.5 |
| 20260506122545 | 16 | 200 | 0.0 | 4.8 | 0.05 | 0.00 | 0.05 | 90 | 1007.4 |
| 20260506121804 | 16 | 82 | 0.0 | 4.8 | 0.05 | 0.00 | 0.05 | 90 | 1007.7 |
| 20260506121303 | 16 | 226 | 0.0 | 4.8 | 0.05 | 0.00 | 0.05 | 89 | 1007.8 |
| 20260506120804 | 16 | 220 | 1.6 | 4.8 | 0.03 | 0.00 | 0.03 | 88 | 1007.8 |
| 20260506120304 | 16 | 176 | 0.0 | 6.4 | 0.00 | 0.00 | 0.00 | 87 | 1008.0 |
| 20260506115804 | 16 | 176 | 0.0 | 8.0 | 0.00 | 0.00 | 0.00 | 85 | 1008.1 |
| 20260506115546 | 17 | 312 | 1.6 | 8.0 | 0.00 | 0.00 | 0.00 | 83 | 1008.1 |
| 20260506114804 | 17 | 202 | 1.6 | 8.0 | 0.00 | 0.00 | 0.00 | 83 | 1008.0 |
| 20260506114302 | 17 | 203 | 1.6 | 8.0 | 0.00 | 0.00 | 0.00 | 82 | 1008.0 |
| 20260506113804 | 17 | 137 | 1.6 | 8.0 | 0.00 | 0.00 | 0.00 | 81 | 1007.9 |
| 20260506113304 | 17 | 261 | 1.6 | 6.4 | 0.00 | 0.00 | 0.00 | 80 | 1007.9 |
| 20260506112802 | 17 | 216 | 1.6 | 8.0 | 0.00 | 0.00 | 0.00 | 79 | 1008.0 |
| 20260506112305 | 17 | 189 | 3.2 | 8.0 | 0.00 | 0.00 | 0.00 | 80 | 1007.8 |
| 20260506111802 | 17 | 62 | 1.6 | 9.7 | 0.00 | 0.00 | 0.00 | 80 | 1007.6 |
| 20260506111544 | 17 | 31 | 3.2 | 9.7 | 0.00 | 0.00 | 0.00 | 79 | 1007.5 |
| 20260506110802 | 17 | 206 | 3.2 | 8.0 | 0.00 | 0.00 | 0.00 | 79 | 1007.5 |
| 20260506110301 | 17 | 49 | 1.6 | 6.4 | 0.00 | 0.00 | 0.00 | 79 | 1007.4 |
| 20260506105803 | 17 | 213 | 1.6 | 4.8 | 0.00 | 0.00 | 0.00 | 79 | 1007.4 |
| 20260506105305 | 17 | 241 | 1.6 | 6.4 | 0.00 | 0.00 | 0.00 | 79 | 1007.4 |
| 20260506104804 | 17 | 186 | 1.6 | 6.4 | 0.00 | 0.00 | 0.00 | 77 | 1007.4 |
| 20260506104302 | 18 | 237 | 3.2 | 16.1 | 0.00 | 0.00 | 0.00 | 76 | 1007.3 |
| 20260506103804 | 18 | 220 | 1.6 | 16.1 | 0.00 | 0.00 | 0.00 | 74 | 1007.3 |
| 20260506103302 | 18 | 226 | 4.8 | 11.3 | 0.00 | 0.00 | 0.00 | 73 | 1007.2 |
| 20260506102805 | 18 | 226 | 1.6 | 8.0 | 0.00 | 0.00 | 0.00 | 73 | 1007.1 |
| 20260506102544 | 18 | 269 | 3.2 | 8.0 | 0.00 | 0.00 | 0.00 | 74 | 1007.1 |
| 20260506101802 | 18 | 265 | 0.0 | 6.4 | 0.00 | 0.00 | 0.00 | 73 | 1007.1 |
| 20260506101302 | 18 | 240 | 3.2 | 9.7 | 0.00 | 0.00 | 0.00 | 73 | 1007.0 |
| 20260506100802 | 18 | 103 | 3.2 | 9.7 | 0.00 | 0.00 | 0.00 | 73 | 1007.1 |
| 20260506100304 | 18 | 262 | 3.2 | 9.7 | 0.00 | 0.00 | 0.00 | 72 | 1007.0 |
| 20260506095802 | 18 | 251 | 3.2 | 9.7 | 0.00 | 0.00 | 0.00 | 72 | 1007.1 |
| 20260506095305 | 18 | 214 | 3.2 | 11.3 | 0.00 | 0.00 | 0.00 | 72 | 1006.9 |
| 20260506094802 | 18 | 228 | 3.2 | 17.7 | 0.00 | 0.00 | 0.00 | 71 | 1007.0 |
| 20260506094302 | 18 | 217 | 4.8 | 17.7 | 0.00 | 0.00 | 0.00 | 71 | 1007.1 |
| 20260506094041 | 18 | 210 | 4.8 | 11.3 | 0.00 | 0.00 | 0.00 | 71 | 1007.2 |
| 20260506093543 | 18 | 219 | 3.2 | 16.1 | 0.00 | 0.00 | 0.00 | 71 | 1007.1 |
| 20260506092803 | 18 | 219 | 4.8 | 16.1 | 0.00 | 0.00 | 0.00 | 71 | 1007.1 |
| 20260506092306 | 18 | 224 | 3.2 | 9.7 | 0.00 | 0.00 | 0.00 | 71 | 1007.1 |
| 20260506091802 | 18 | 166 | 6.4 | 11.3 | 0.00 | 0.00 | 0.00 | 71 | 1007.1 |
| 20260506091303 | 18 | 226 | 4.8 | 11.3 | 0.00 | 0.00 | 0.00 | 71 | 1007.1 |
| 20260506090803 | 18 | 8 | 3.2 | 6.4 | 0.00 | 0.00 | 0.00 | 71 | 1007.1 |
| 20260506090303 | 18 | 226 | 3.2 | 8.0 | 0.00 | 0.00 | 0.00 | 71 | 1007.1 |
| 20260506090042 | 18 | 192 | 1.6 | 8.0 | 0.00 | 0.00 | 0.00 | 70 | 1007.2 |